Location: Ostrava
(49.8330°N, 18.2830°E)
Time: 21:09:48
(UTC+02:00)

Explorer 7 - Visible Passes

Search period start: 23 August 2014 00:00
Search period end: 02 September 2014 00:00
Orbit: 492 x 706 km, 50.3° (Epoch: 23 August)

Date Brightness Start Highest point End Pass type
(mag) Time Alt. Az. Time Alt. Az. Time Alt. Az.
23 Aug 9.3 02:56:42 11° ESE 02:56:42 11° ESE 02:57:02 10° ESE visible
23 Aug 7.3 04:33:23 17° SW 04:35:59 44° SSE 04:39:36 10° E visible
24 Aug 8.7 03:06:43 18° SE 03:06:43 18° SE 03:08:42 10° E visible
24 Aug 6.8 04:43:23 16° WSW 04:46:21 62° SSE 04:50:06 10° E visible
25 Aug 8.0 03:16:42 28° SE 03:16:42 28° SE 03:19:32 10° E visible
25 Aug 6.6 04:53:22 13° WSW 04:56:47 81° SSE 05:00:34 10° E visible
26 Aug 7.2 03:26:39 42° SSE 03:26:39 42° SSE 03:30:09 10° E visible
26 Aug 6.6 05:03:25 10° W 05:07:14 86° N 05:11:03 10° E visible
27 Aug 6.6 03:36:36 58° S 03:36:54 61° SSE 03:40:39 10° E visible
27 Aug 6.7 05:13:54 10° W 05:17:43 82° N 05:21:31 10° E visible
28 Aug 9.5 02:09:53 11° E 02:09:53 11° E 02:10:05 10° E visible
28 Aug 6.5 03:46:33 55° WSW 03:47:19 80° SSE 03:51:06 10° E visible
29 Aug 9.1 02:19:50 16° E 02:19:50 16° E 02:20:41 10° E visible
29 Aug 6.5 03:56:30 41° W 03:57:46 87° N 04:01:34 10° E visible
30 Aug 8.8 02:29:49 21° E 02:29:49 21° E 02:31:10 10° E visible
30 Aug 6.6 04:06:29 31° W 04:08:14 82° N 04:12:02 10° E visible
31 Aug 8.4 02:39:50 27° E 02:39:50 27° E 02:41:38 10° E visible
31 Aug 6.6 04:16:30 24° W 04:18:42 85° N 04:22:30 10° E visible
01 Sep 8.1 02:49:55 33° E 02:49:55 33° E 02:52:04 10° E visible
01 Sep 6.5 04:26:35 20° W 04:29:09 84° SSW 04:32:56 10° ESE visible
